This is the latest recevied weather packets stored in our database for station/object BV1EV-2. If no packets are shown the sender has not sent any weather packets the latest 10 day(s).
| Time | Temp. | Humidity | Pressure | Rain* | Wind** | Luminosity | Snow |
|---|---|---|---|---|---|---|---|
| 1777527467 | 27.22° C | 55% | 1013.7 hPa | - | - | - | - |
| 1777526268 | 26.67° C | 54% | 1013.7 hPa | - | - | - | - |
| 1777525067 | 26.11° C | 53% | 1013.8 hPa | - | - | - | - |
| 1777523867 | 25.56° C | 46% | 1014.3 hPa | - | - | - | - |
| 1777522667 | 25° C | 45% | 1014.3 hPa | - | - | - | - |
| 1777521467 | 24.44° C | 44% | 1014.3 hPa | - | - | - | - |
| 1777520267 | 23.89° C | 41% | 1014.1 hPa | - | - | - | - |
| 1777519066 | 25.56° C | 34% | 1014.2 hPa | - | - | - | - |
| 1777517867 | 25.56° C | 35% | 1014.3 hPa | - | - | - | - |
| 1777516667 | 26.11° C | 36% | 1014.5 hPa | - | - | - | - |
| 1777515467 | 26.11° C | 37% | 1014.5 hPa | - | - | - | - |
| 1777514266 | 25.56° C | 35% | 1014.4 hPa | - | - | - | - |
| 1777513067 | 25.56° C | 41% | 1014.5 hPa | - | - | - | - |
| 1777511867 | 24.44° C | 40% | 1014.6 hPa | - | - | - | - |
| 1777510667 | 25° C | 33% | 1014.5 hPa | - | - | - | - |
| 1777508267 | 25.56° C | 33% | 1014.1 hPa | - | - | - | - |
| 1777505868 | 25° C | 34% | 1013.7 hPa | - | - | - | - |
| 1777502267 | 25.56° C | 34% | 1012.8 hPa | - | - | - | - |
| 1777501068 | 26.11° C | 34% | 1012.5 hPa | - | - | - | - |
| 1777499867 | 26.11° C | 34% | 1012.3 hPa | - | - | - | - |
| 1777498668 | 26.11° C | 34% | 1012.2 hPa | - | - | - | - |
| 1777497468 | 26.11° C | 34% | 1012.2 hPa | - | - | - | - |
| 1777496268 | 26.11° C | 34% | 1012.1 hPa | - | - | - | - |
| 1777492667 | 27.78° C | 39% | 1011.9 hPa | - | - | - | - |
| 1777491467 | 27.78° C | 46% | 1011.9 hPa | - | - | - | - |
* Rain since midnight (hover to see other rain measurements)
** Current wind speed in m/s (hover to see current wind gust speed)